SCP
0 0 0 0 1 1 1 1 1 1 1 1 1 0 0 0 0 0 0 0 0 0 0 1 1 1 1 1 1 1 1 1 1 1 1 1 1 1 1 1 1 1 1
0 0 0 0 0 1 1 1 1 1 1 1 1 1 0 0 0 0 0 0 0 0 0 1 1 1 1 1 1 2 2 2 1 1 1 1 1 1 1 1 1 1 1
0 0 0 0 0 0 0 0 1 1 1 1 1 1 0 0 0 0 0 0 0 0 0 1 1 1 1 1 1 2 2 2 1 1 1 1 1 1 1 1 1 1 1
0 0 0 0 0 0 0 0 0 0 0 0 0 0 0 0 0 0 0 0 0 0 0 0 1 1 1 1 1 1 2 2 2 1 1 1 1 1 1 1 1 1 1
0 0 0 0 0 0 0 0 0 0 0 0 0 0 0 0 0 0 0 0 0 0 0 0 0 0 1 1 1 1 1 2 2 1 1 1 1 1 1 1 1 1 1
0 0 0 0 0 0 0 0 0 0 0 0 0 0 0 0 0 0 0 0 0 0 0 0 0 0 0 1 1 1 1 1 1 1 1 1 1 1 1 1 1 1 1
0 0 0 0 0 0 0 0 0 0 0 0 0 0 0 0 0 0 0 0 0 0 0 0 0 0 0 0 1 1 1 1 1 1 1 1 1 1 1 2 2 2 2
0 0 0 0 0 0 0 0 0 0 0 0 0 0 0 0 0 0 0 0 0 0 0 0 0 0 0 0 0 0 1 1 1 1 1 1 1 1 2 2 2 2 2
0 0 0 0 0 0 0 0 0 0 0 0 0 0 0 0 0 0 0 0 0 0 0 0 0 0 0 0 0 0 0 1 1 1 1 1 1 1 2 2 3 3 3
0 0 0 0 0 0 0 0 0 0 0 0 0 0 0 0 0 0 0 0 0 0 0 0 0 0 0 0 0 0 0 1 1 1 1 1 1 2 2 2 2 2 2
0 0 0 0 0 0 0 0 0 0 0 0 0 0 0 0 0 0 0 0 0 0 0 0 0 0 0 0 0 0 0 0 1 1 1 1 1 2 2 2 2 2 2
0 0 0 0 0 0 0 0 0 0 0 0 0 0 0 0 0 0 0 0 0 0 0 0 0 0 0 0 0 0 0 0 0 0 0 1 1 2 2 1 1 1 1
0 0 0 0 0 0 0 0 0 0 0 0 0 0 0 0 0 0 0 0 0 0 0 0 0 0 0 0 0 0 0 0 0 0 0 0 1 1 1 1 1 1 1
0 0 0 0 0 0 0 0 0 0 0 0 0 0 0 0 0 0 0 0 0 0 0 0 0 0 0 0 0 0 0 0 0 0 0 0 0 0 0 0 0 0 1
0 0 0 0 0 0 0 0 0 0 0 0 0 0 0 0 0 0 0 0 0 0 0 0 0 0 0 0 0 0 0 0 0 0 0 0 0 0 0 0 0 0 0
0 0 0 0 0 0 0 0 0 0 0 0 0 0 0 0 0 0 0 0 0 0 0 0 0 0 0 0 0 0 0 0 0 0 0 0 0 0 0 0 0 0 0
0 0 0 0 0 0 0 0 0 0 0 0 0 0 0 0 0 0 0 0 0 0 0 0 0 0 0 0 0 0 0 0 0 0 0 0 0 0 0 0 0 0 0
0 0 0 0 0 0 0 0 0 0 0 0 0 0 0 0 0 0 0 0 0 0 0 0 0 0 0 0 0 0 0 0 0 0 0 0 0 0 0 0 0 0 0
0 0 0 0 0 0 0 0 0 0 0 0 0 0 0 0 0 0 0 0 0 0 0 0 0 0 0 0 0 0 0 0 0 0 0 0 0 0 0 0 0 0 0
0 0 0 0 0 0 0 0 0 0 0 0 0 0 0 0 0 0 0 0 0 0 0 0 0 0 0 0 0 0 0 0 0 0 0 0 0 0 0 0 0 0 0
0 0 0 0 0 0 0 0 0 0 0 0 0 0 0 0 0 0 0 0 0 0 0 0 0 0 0 0 0 0 0 0 0 0 0 0 0 0 0 0 0 0 0
0 0 0 0 0 0 0 0 0 0 0 0 0 0 0 0 0 0 0 0 0 0 0 0 0 0 0 0 0 0 0 0 0 0 0 0 0 0 0 0 0 0 0
0 0 0 0 0 0 0 0 0 0 0 0 0 0 0 0 0 0 0 0 0 0 0 0 0 0 0 0 0 0 0 0 0 0 0 0 0 0 0 0 0 0 0
0 0 0 0 0 0 0 0 0 0 0 0 0 0 0 0 0 0 0 0 0 0 0 0 0 0 0 0 0 0 0 0 0 0 0 0 0 0 0 0 0 0 0
0 0 0 0 0 0 0 0 0 0 0 0 0 0 0 0 0 0 0 0 0 0 0 0 0 0 0 0 0 0 0 0 0 0 0 0 0 0 0 0 0 0 0
0 0 0 0 0 0 0 0 0 0 0 0 0 0 0 0 0 0 0 0 0 0 0 0 0 0 0 0 0 0 0 0 0 0 0 0 0 0 0 0 0 0 0
Wind_Speed
2 2 2 2 2 2 2 2 2 2 2 2 1 1 1 2 1 1 2 3 3 3 4 4 4 4 4 4 4 4 4 5 5 5 5 5 6 6 7 7 7 8 8
2 2 2 2 2 2 1 1 2 2 1 1 2 2 2 2 1 2 2 2 4 3 4 4 4 5 5 5 4 4 4 5 5 5 5 6 6 7 7 8 8 8 9
2 2 1 2 2 2 2 2 2 2 2 2 2 2 2 2 2 2 2 1 2 3 4 5 5 6 6 6 6 6 5 5 6 6 6 6 7 7 8 8 9 9 9
2 2 1 1 2 2 2 2 2 2 2 2 2 2 2 2 3 2 2 1 1 2 3 4 6 6 7 7 7 7 7 7 7 7 7 8 8 8 9 9 9 10 10
2 2 1 1 1 2 2 2 2 2 2 3 3 2 2 2 2 2 2 2 2 2 2 3 5 6 7 8 8 9 8 8 8 8 8 8 8 9 9 10 10 10 10
1 1 1 1 1 2 2 2 2 2 1 2 3 3 3 3 2 2 2 2 1 2 2 2 2 4 7 8 9 9 10 9 9 9 9 9 9 9 10 10 10 10 10
1 1 1 1 1 1 1 1 1 2 2 2 2 3 3 3 2 2 1 1 1 2 1 2 2 2 3 7 9 10 11 11 11 10 10 10 10 10 10 10 11 11 11
0 1 0 0 0 0 1 1 1 1 1 2 1 2 3 4 3 2 2 1 2 2 2 3 2 3 3 2 5 9 11 12 12 12 11 11 11 11 11 11 11 11 10
1 0 1 1 1 1 1 1 0 0 1 2 0 0 0 2 3 3 2 2 2 2 3 3 3 3 3 3 3 6 9 11 13 13 12 12 12 12 12 12 12 11 11
1 1 1 1 1 1 1 1 1 1 1 1 1 1 2 2 2 3 3 2 3 3 3 4 4 4 4 3 4 7 9 11 12 13 12 13 13 13 13 12 12 12 11
2 2 1 1 1 2 2 2 1 1 1 2 1 1 2 2 2 3 5 4 3 3 3 4 3 3 4 3 3 6 10 10 11 12 13 13 13 13 13 13 12 12 12
2 2 2 2 2 2 2 2 2 2 2 2 2 2 2 2 2 3 4 5 5 4 4 3 3 3 3 3 5 9 10 10 10 11 12 12 13 13 13 13 12 12 12
2 2 2 2 2 2 2 2 2 3 3 3 3 2 2 3 3 3 4 5 6 5 4 3 3 3 3 3 4 8 8 10 11 11 12 12 11 12 12 12 13 12 12
3 3 2 3 3 3 3 2 2 3 3 3 3 3 2 3 3 3 4 4 6 5 4 4 2 3 3 3 5 8 6 10 11 12 12 11 11 11 12 12 12 12 12
3 3 3 3 3 3 3 2 3 3 3 3 3 3 3 3 3 3 3 3 4 7 7 4 3 3 3 3 6 4 5 9 12 12 12 12 11 11 12 12 11 11 11
3 3 3 3 3 3 3 3 3 3 3 3 3 3 3 3 3 3 3 3 4 5 8 4 4 4 5 5 8 5 5 11 11 12 13 12 11 11 11 11 11 11 10
3 3 3 4 3 3 3 3 3 3 4 4 3 4 5 4 4 3 3 4 4 4 8 7 4 4 5 6 6 5 5 5 6 11 12 12 11 11 11 10 10 10 10
3 3 3 4 4 4 3 4 4 4 4 5 5 5 5 4 5 4 4 4 5 5 6 9 6 4 5 5 6 6 5 5 5 10 12 12 11 10 10 10 9 9 9
3 3 3 4 4 4 4 4 4 5 5 5 6 6 6 5 6 5 5 5 5 5 5 7 7 4 4 4 5 5 6 5 6 7 10 10 10 9 9 9 9 8 8
3 3 3 4 4 4 4 4 5 5 5 5 6 6 6 6 7 6 6 6 5 5 5 6 6 5 5 4 3 4 5 4 5 5 6 7 8 9 9 9 8 7 7
4 3 3 4 4 4 4 4 4 5 5 5 5 6 6 8 9 8 6 5 5 5 5 6 6 5 5 4 4 3 5 5 5 4 4 4 4 4 5 7 7 6 7
3 3 3 4 4 4 6 8 7 5 5 6 6 6 6 7 8 11 12 11 9 7 7 6 6 6 7 5 4 4 4 5 5 2 3 5 3 4 4 3 6 8 7
3 3 4 4 4 6 8 9 9 6 5 6 6 5 5 6 8 6 9 10 10 12 11 8 8 7 6 5 5 5 5 5 6 4 3 5 3 4 3 4 7 8 7
3 3 4 4 4 6 8 9 9 6 5 5 5 6 6 6 6 6 6 6 6 7 8 7 7 7 6 5 5 5 5 5 5 4 2 4 3 3 3 3 6 6 5
3 3 3 4 4 5 7 8 8 4 4 4 4 5 5 5 8 8 6 6 6 6 6 8 8 8 8 9 6 3 3 3 4 3 2 2 2 3 3 2 3 4 4
3 3 3 3 4 4 7 8 7 3 3 3 3 4 6 7 8 8 5 5 6 6 5 5 5 6 6 6 7 4 4 4 3 3 2 1 2 1 2 2 1 2 2
Wind_Direction
58 47 37 31 21 17 18 11 7 7 4 352 348 347 332 319 316 312 310 328 328 315 302 295 290 285 277 279 277 281 280 277 278 280 282 282 280 279 277 276 274 274 273
72 58 43 32 21 9 358 13 1 355 345 339 330 329 312 297 296 299 294 311 322 319 306 297 298 299 293 283 285 287 284 283 282 284 284 285 286 283 279 277 278 276 275
77 74 55 27 7 3 7 16 9 7 4 352 332 318 307 296 295 282 279 278 292 311 309 302 300 298 299 296 292 289 284 280 281 282 282 283 284 285 284 281 277 275 275
67 73 59 21 2 13 21 19 12 8 1 348 327 314 305 290 284 276 275 275 274 290 300 309 307 301 301 300 297 292 285 281 280 279 279 279 279 280 280 281 278 275 275
54 74 63 15 19 29 27 18 18 6 345 337 322 311 301 293 283 280 272 272 270 274 279 305 309 306 302 298 295 294 289 284 284 281 281 279 279 278 278 277 275 275 276
44 67 60 19 37 43 26 24 13 2 332 325 323 321 304 294 287 278 269 275 280 281 282 294 303 306 303 299 297 295 295 292 288 284 283 282 280 279 277 275 274 272 272
34 56 39 21 43 57 22 16 16 4 348 348 355 336 318 305 300 290 297 299 310 302 313 306 295 286 296 302 301 297 296 295 290 289 285 284 284 281 277 275 274 273 271
5 23 24 292 38 53 22 17 42 20 337 4 21 350 334 332 329 324 320 315 313 321 324 314 300 294 291 289 302 303 299 296 294 291 290 288 285 284 282 279 276 276 275
284 274 247 251 235 176 217 245 174 114 297 308 320 146 321 290 311 306 299 302 315 323 313 306 310 302 296 293 295 304 307 302 299 296 293 292 290 287 286 284 281 276 277
269 267 254 245 241 233 227 238 222 210 202 270 291 276 241 230 271 304 304 310 317 306 298 307 304 299 297 296 302 309 312 307 301 298 296 296 294 291 289 289 288 281 278
274 273 259 246 249 254 246 233 231 230 215 230 243 270 279 280 243 257 284 299 304 284 284 283 286 291 298 295 297 307 313 307 305 302 298 298 297 295 294 294 294 289 282
287 284 281 262 250 250 250 240 227 232 233 239 247 241 243 250 255 254 270 289 294 289 285 270 268 276 286 291 300 311 313 314 310 309 305 300 298 296 296 298 298 295 290
280 279 283 270 262 252 249 246 234 238 233 234 238 248 248 253 256 260 269 282 286 289 283 272 260 269 289 291 294 310 311 315 314 310 307 305 305 303 301 300 299 297 295
262 268 268 265 265 263 264 254 252 246 244 238 248 249 253 255 250 252 258 275 289 287 274 271 278 264 285 290 296 308 306 312 311 309 305 303 300 298 298 297 295 296 294
265 262 258 260 261 261 255 252 258 254 249 246 244 245 253 259 253 256 256 248 263 281 282 270 279 284 289 288 295 295 296 303 305 306 303 300 298 297 294 295 294 294 290
258 256 260 261 264 263 258 255 257 254 248 253 251 253 258 260 257 255 254 256 253 262 274 275 272 286 290 291 294 291 289 303 302 301 299 297 296 296 294 293 294 291 286
261 261 260 263 262 260 257 255 258 256 254 261 265 263 262 259 258 254 251 253 254 255 269 280 272 280 282 285 291 288 283 283 289 297 297 295 293 291 290 290 291 289 288
258 259 259 261 264 265 259 255 259 262 256 260 263 264 264 265 262 260 254 254 255 254 261 278 284 283 277 280 282 284 288 290 285 294 296 294 292 289 288 288 289 289 287
261 264 261 263 267 265 260 257 253 258 256 256 257 255 257 257 261 261 261 259 258 262 259 269 280 279 278 280 287 289 284 283 287 292 294 292 292 293 291 291 289 288 286
264 263 268 268 267 266 261 259 257 260 261 261 260 256 256 255 257 262 264 261 261 262 263 267 274 278 277 277 271 282 292 286 286 291 288 291 295 296 295 293 291 290 289
269 266 271 273 269 264 257 258 261 264 265 266 265 263 261 263 266 269 270 267 264 263 264 268 272 276 274 277 274 275 284 291 283 269 276 279 283 280 284 289 293 291 290
272 270 270 270 273 276 277 277 275 265 264 263 266 269 270 269 272 276 276 276 271 266 263 261 266 267 271 267 266 272 283 290 286 270 274 286 271 272 274 265 285 292 290
269 271 269 267 268 272 280 281 279 275 264 259 257 263 272 274 282 275 278 282 277 271 265 261 264 264 267 265 267 271 271 276 273 276 279 280 277 274 274 276 289 292 293
277 273 273 273 274 277 285 287 288 279 266 260 258 256 261 268 271 277 277 278 276 274 270 265 259 262 264 264 254 260 269 277 279 273 257 272 283 279 284 277 283 291 301
286 282 278 276 280 284 289 291 291 276 269 271 270 268 268 268 275 286 283 282 285 286 283 279 276 272 276 275 272 271 275 279 285 281 253 254 276 292 289 280 289 307 318
282 287 290 287 285 290 297 298 297 274 277 283 280 276 276 279 285 290 281 279 284 291 295 299 292 288 286 282 279 255 245 256 272 276 246 246 260 299 303 288 283 306 312